Location: ?????????
(38.5999°N, 22.7695°E)
Time: 04:41:59
(UTC+00:00)

PAYLOAD A - Pass Details

Date: 14 August 2024
Orbit: 690 x 831 km, 98.5° (Epoch: 09 September)

Event Time Altitude Azimuth Distance (km) Brightness Sun altitude
Rises 00:47:16 0° 38° (NE) 3,160 8.4 -28.6°
Reaches altitude 10° 00:51:47 10° 77° (ENE) 2,195 7.0 -28.1°
Maximum altitude 00:52:46 11° 89° (E) 2,148 6.8 -27.9°
Drops below altitude 10° 00:53:44 10° 101° (ESE) 2,178 6.6 -27.8°
Enters shadow 00:56:37 - 130° (SE) 2,659 6.8 -27.5°
